SCP
0 0 0 0 0 0 0 0 0 0 0 0 0 0 0 0 0 0 0 0 0 0 0 0 0 0 0 0 0 0 0 0 0 0 0 0 0 0 0 0 0 0 0 0
0 0 0 0 0 0 0 0 0 0 0 0 0 0 0 0 0 0 0 0 0 0 0 0 0 0 0 0 0 0 0 0 0 0 0 0 0 0 0 0 0 0 0 0
0 0 0 0 0 0 0 0 0 0 0 0 0 0 0 0 0 0 0 0 0 0 0 0 0 0 0 0 0 0 0 0 0 0 0 0 0 0 0 0 0 0 0 0
0 0 0 0 0 0 0 0 0 0 0 0 0 0 0 0 0 0 0 0 0 0 0 0 0 0 0 0 0 0 0 0 0 0 0 0 0 0 0 0 0 0 0 0
0 0 0 0 0 0 0 0 0 0 0 0 0 0 0 0 0 0 0 0 0 0 0 0 0 0 0 0 0 0 0 0 0 0 0 0 0 0 0 0 0 0 0 0
0 0 0 0 0 0 0 0 0 0 0 0 0 0 0 0 0 0 0 0 0 0 0 0 0 0 0 0 0 0 0 0 0 0 0 0 0 0 0 0 0 0 0 0
0 0 0 0 0 0 0 0 0 0 0 0 0 0 0 0 0 0 0 0 0 0 0 0 0 0 0 0 0 0 0 0 0 0 0 0 0 0 0 0 0 0 0 0
0 0 0 0 0 0 0 0 0 0 0 0 0 0 0 0 0 0 0 0 0 0 0 0 0 0 0 0 0 0 0 0 0 0 0 0 0 0 0 0 0 0 0 0
0 0 0 0 0 0 0 0 0 0 0 0 0 0 0 0 0 0 0 0 0 0 0 0 0 0 0 0 0 0 0 0 0 0 0 0 0 0 0 0 0 0 0 0
0 0 0 0 0 0 0 0 0 0 0 0 0 0 0 0 0 0 0 0 0 0 0 0 0 0 0 0 0 0 0 0 0 0 0 0 0 0 0 0 0 0 0 0
0 0 0 0 0 0 0 0 0 0 0 0 0 0 0 0 0 0 0 0 0 0 0 0 0 0 0 0 0 0 0 0 0 0 0 0 0 0 0 0 0 0 0 0
0 0 0 0 0 0 0 0 0 0 0 0 0 0 0 0 0 0 0 0 0 0 0 0 0 0 0 0 0 0 0 0 0 0 0 0 0 0 0 0 0 0 0 0
0 0 0 0 0 0 0 0 0 0 0 0 0 0 0 0 0 0 0 0 0 0 0 0 0 -0 -0 -0 0 0 0 0 0 0 0 0 0 0 0 0 0 0 0 0
0 0 0 0 0 0 0 0 0 0 0 0 0 0 0 0 0 0 0 0 0 0 0 0 0 -0 -0 0 0 0 0 0 0 0 0 0 0 0 0 0 0 0 0 0
0 0 0 0 0 0 0 0 0 0 0 0 0 0 0 0 0 0 0 0 0 0 0 0 0 0 0 0 0 0 0 0 0 0 0 0 0 0 0 0 0 0 0 0
0 0 0 0 0 0 0 0 0 0 0 0 0 0 0 0 0 0 0 0 0 0 0 0 0 0 0 0 0 0 0 0 0 0 0 0 0 0 0 0 0 0 0 0
0 0 0 0 0 0 0 -0 0 0 0 0 0 0 0 0 0 0 0 0 0 0 0 0 0 0 0 0 0 0 0 0 0 0 0 0 0 0 0 0 0 0 0 0
0 0 0 0 0 0 0 0 0 0 0 0 0 0 0 0 0 0 0 0 0 0 0 0 0 0 0 0 0 0 0 0 0 0 0 0 0 0 0 0 0 0 0 0
0 0 0 0 0 0 0 0 0 0 0 0 0 0 0 0 0 0 0 0 0 0 0 0 0 0 0 0 0 0 0 0 -0 0 0 0 0 0 0 0 0 0 0 0
0 0 0 0 0 0 0 0 0 0 0 0 0 0 0 0 0 0 0 0 0 0 0 0 0 0 0 0 0 0 0 -0 -0 -0 -0 0 0 0 0 0 0 0 0 0
0 0 0 0 0 0 0 0 0 0 0 0 0 0 0 0 0 0 0 0 0 0 0 0 0 0 0 0 0 0 0 0 0 0 0 0 0 0 0 0 0 0 0 0
0 0 0 0 0 0 0 0 0 0 0 0 0 0 0 0 0 0 0 0 0 0 0 0 0 0 0 0 0 0 0 0 0 0 0 0 0 0 0 0 0 0 0 0
0 0 0 0 0 0 0 0 0 0 0 0 0 0 0 0 0 0 0 0 0 0 0 0 0 0 0 0 0 0 0 0 0 0 0 0 0 0 0 0 0 0 0 0
0 0 0 0 0 0 0 0 0 0 0 0 0 0 0 0 0 0 0 0 0 0 0 0 0 0 0 0 0 0 0 0 0 0 0 0 0 0 0 0 0 0 0 0
0 0 0 0 0 0 0 0 0 0 0 0 0 0 0 0 0 0 0 0 0 0 0 0 0 0 0 0 0 0 0 0 0 0 0 0 0 0 0 0 0 0 0 0
0 0 0 0 -0 -0 -0 0 0 0 0 0 0 0 0 0 0 0 0 0 0 0 0 0 0 0 0 0 0 0 0 0 0 0 0 0 0 0 0 0 0 0 0 0
Wind_Speed
1 3 3 6 6 4 2 3 6 6 3 3 7 11 11 7 5 6 6 5 5 5 5 2 2 1 1 2 2 4 4 3 3 2 2 3 3 3 3 4 5 6 7 7
3 3 5 3 3 3 3 5 6 5 3 4 6 11 9 7 6 7 6 5 5 3 3 2 1 0 0 2 3 3 4 4 4 4 3 3 4 3 3 3 5 6 7 7
5 4 3 2 2 3 5 6 6 5 5 3 4 8 6 4 3 3 3 3 2 3 2 1 1 0 0 1 2 3 3 3 4 3 2 1 0 1 2 3 3 5 6 7
2 3 1 2 3 3 5 4 5 4 2 4 0 6 7 3 3 2 2 1 1 1 0 0 1 1 2 2 2 2 3 3 3 3 3 4 4 4 4 3 4 4 6 6
2 2 1 3 3 3 4 2 2 2 2 3 2 4 9 2 3 4 3 2 2 2 1 2 2 2 2 2 1 2 2 3 3 3 4 4 4 3 2 2 4 4 5 6
3 2 2 3 2 2 1 2 3 2 2 4 5 5 7 3 4 3 3 2 2 2 1 2 3 2 3 3 2 2 2 3 3 3 4 4 4 4 3 3 4 4 4 4
3 3 2 1 0 1 2 4 3 3 2 6 3 4 8 5 3 3 3 2 2 1 2 2 3 3 3 3 3 3 3 3 3 3 4 4 5 5 5 5 5 4 4 4
1 4 3 1 2 3 2 4 5 4 5 5 2 6 7 3 1 1 1 1 1 2 2 3 3 3 3 3 3 3 3 4 4 3 4 3 4 3 3 4 4 4 4 4
3 4 3 2 2 4 3 3 3 3 1 4 6 6 6 1 1 2 2 2 2 2 3 3 4 3 3 4 4 3 3 4 4 3 3 3 3 3 4 4 3 3 3 3
4 3 4 2 1 0 3 4 3 3 2 5 6 5 5 3 2 2 2 2 3 3 3 4 4 3 4 4 3 3 3 4 4 3 3 3 3 3 3 3 3 3 3 3
2 2 3 1 4 4 2 2 3 3 3 4 5 7 4 4 2 2 3 3 3 3 4 4 4 4 4 4 3 3 3 3 3 3 3 3 3 3 3 2 3 3 3 3
1 3 3 5 4 2 4 4 5 4 4 4 3 9 3 2 1 1 3 4 4 4 4 4 4 4 3 3 3 3 2 2 3 3 2 2 3 3 2 2 3 2 3 3
3 3 1 4 3 1 2 3 3 3 3 4 5 9 1 2 3 3 4 5 5 4 4 4 3 4 4 3 3 3 3 3 3 2 2 2 2 2 2 2 2 2 2 2
2 3 5 7 5 3 4 5 4 4 4 5 9 10 8 6 6 6 5 5 4 4 4 4 4 4 4 3 3 3 3 2 2 2 2 2 2 2 2 2 2 2 2 2
3 3 4 6 5 4 6 7 6 8 8 8 8 9 10 6 6 6 5 4 5 5 5 5 5 5 4 4 3 3 2 2 2 1 1 2 2 1 1 1 1 1 1 1
1 2 1 4 5 5 7 8 8 8 7 8 8 11 5 5 4 4 5 4 5 6 7 6 5 5 4 4 4 3 2 2 1 1 1 2 2 1 1 1 1 1 1 1
2 2 1 3 4 3 6 7 7 5 5 6 9 9 5 6 6 6 6 5 6 6 6 6 5 5 4 4 3 3 2 1 1 1 2 2 1 1 1 2 1 1 1 1
4 3 2 1 2 5 6 1 4 5 5 5 5 5 4 6 6 5 4 3 5 6 6 6 5 5 5 4 3 3 2 1 1 1 2 2 1 2 2 1 2 2 1 1
4 4 2 2 2 7 6 2 2 3 5 4 5 5 5 4 4 3 2 3 4 5 5 5 4 4 4 3 3 3 3 2 2 2 2 2 2 2 2 2 2 2 1 2
2 3 3 2 3 6 5 2 1 2 5 2 2 3 4 3 3 5 5 6 6 5 5 4 4 4 4 4 3 2 3 2 2 2 3 3 2 2 2 2 2 2 2 2
2 2 3 4 4 8 5 2 2 2 6 2 1 2 1 2 4 5 6 6 5 5 5 4 4 4 4 4 2 2 2 3 3 3 3 3 2 2 2 2 2 2 1 2
6 5 4 4 4 8 2 2 3 5 2 1 2 2 2 3 4 4 5 5 5 5 5 4 4 4 4 4 3 2 3 3 3 3 3 3 3 3 2 2 2 2 1 1
5 6 5 7 7 3 1 3 3 2 2 2 2 2 1 3 4 4 4 5 5 4 4 4 4 4 5 4 3 2 4 3 3 2 3 3 3 3 3 2 2 2 1 1
3 2 3 4 6 4 3 3 2 2 2 2 1 2 2 2 4 4 4 4 5 4 4 4 4 4 5 5 4 3 4 3 2 3 3 3 2 2 2 2 2 2 2 2
4 3 3 4 5 3 3 3 3 2 1 1 1 2 2 3 4 4 4 4 4 4 3 3 3 4 5 5 5 5 4 3 2 3 3 3 2 2 2 2 2 3 3 3
4 5 5 6 5 4 4 3 2 1 2 2 2 2 2 2 3 3 4 4 4 4 3 3 4 4 5 5 5 5 4 3 2 3 3 2 2 2 2 2 3 4 4 5
Wind_Direction
82 89 201 214 207 213 205 229 256 260 274 271 256 267 273 268 253 248 248 250 250 249 257 249 236 230 201 191 194 195 193 201 189 184 194 197 209 226 219 208 208 205 197 192
60 241 235 218 215 227 238 255 268 286 297 271 274 276 273 260 244 235 233 239 243 250 286 299 292 302 223 213 209 209 204 198 198 202 203 207 206 213 223 221 213 209 201 195
187 232 221 202 228 230 242 231 246 267 316 313 309 294 274 270 262 259 245 244 242 218 228 264 347 345 328 258 232 230 226 215 210 210 199 206 215 235 226 230 224 220 208 200
227 255 224 208 232 208 250 243 243 257 288 285 242 284 281 268 301 298 289 293 290 299 314 300 329 317 287 258 258 260 242 229 221 205 196 195 208 222 231 223 225 227 212 205
245 222 204 221 232 200 229 267 253 241 219 292 245 232 281 301 272 265 258 261 272 277 275 297 287 278 286 276 263 266 268 253 235 218 210 205 222 232 238 229 226 222 218 210
250 248 217 221 242 215 215 36 29 49 85 265 231 201 274 251 244 261 254 262 277 295 319 317 314 315 322 329 312 289 282 269 252 233 222 212 218 230 230 233 227 223 219 215
312 292 287 188 105 355 72 80 27 355 320 251 228 214 251 253 245 235 246 261 284 323 327 322 324 323 320 327 322 308 289 280 267 246 236 228 224 220 220 224 222 220 221 222
186 276 255 225 181 188 196 147 162 206 237 278 268 235 251 256 256 231 205 243 341 343 339 331 319 311 308 304 300 297 290 284 278 260 253 247 236 228 233 230 222 223 223 222
180 253 278 244 218 155 157 197 180 162 242 273 266 274 290 236 8 24 17 10 342 328 327 321 316 309 301 293 281 271 274 282 278 265 262 252 241 231 237 235 223 223 231 228
158 250 276 277 51 352 159 156 114 146 199 260 277 262 251 260 299 317 314 303 306 315 316 312 311 305 299 289 284 273 258 269 272 258 248 257 254 247 244 229 223 227 226 220
130 176 293 305 202 201 159 160 158 166 183 196 265 268 234 216 228 270 278 279 289 298 300 301 305 304 301 302 300 289 282 280 277 266 258 264 266 265 249 230 231 227 225 218
146 139 250 253 262 238 194 190 166 179 230 207 226 268 275 210 233 311 322 313 303 298 297 295 300 307 310 310 316 308 295 278 270 262 258 259 264 265 252 248 242 228 225 219
154 142 350 331 325 338 232 217 191 178 175 198 218 260 298 6 351 344 331 316 312 312 313 315 320 319 316 314 310 303 292 277 273 264 259 266 268 263 262 259 248 226 223 225
133 172 193 213 229 211 248 245 220 190 210 228 232 257 290 312 320 322 320 310 308 308 312 321 322 319 317 317 310 305 303 292 285 274 262 269 272 263 264 265 255 237 224 226
110 207 238 256 261 243 247 253 236 221 218 224 248 257 273 284 293 301 305 311 318 320 321 321 320 319 319 324 325 323 322 321 310 304 292 280 280 283 291 294 285 264 246 256
110 192 243 275 265 254 261 257 240 236 236 241 263 273 274 290 300 307 312 317 318 317 318 321 324 324 322 323 324 325 324 326 329 322 308 309 311 307 300 296 289 278 279 276
174 151 173 267 304 332 270 240 213 215 222 213 238 256 306 304 302 302 301 307 311 312 314 318 320 319 313 311 313 311 311 322 320 303 301 314 315 313 312 306 303 292 286 284
164 153 170 265 14 243 246 207 188 211 237 227 247 270 271 278 290 286 279 298 311 316 317 316 316 317 317 319 322 322 331 340 326 310 306 310 308 307 311 300 297 296 276 276
171 161 168 181 239 274 287 249 186 208 261 236 243 278 300 311 317 307 304 322 312 312 310 308 310 313 321 326 329 350 1 356 349 335 324 317 305 298 297 292 294 286 284 295
100 129 159 179 214 246 259 272 219 133 275 259 235 275 303 347 316 295 323 325 325 328 324 324 327 334 339 332 345 15 357 353 336 322 314 311 302 291 287 288 290 288 282 290
153 171 197 205 232 262 263 277 101 174 262 284 249 261 275 245 244 283 312 322 329 328 327 334 338 341 335 336 1 9 349 329 317 320 319 321 319 303 292 297 294 287 293 300
177 179 196 181 216 256 261 127 185 229 275 290 295 286 269 268 284 299 312 322 329 332 336 341 343 335 336 343 358 353 325 313 319 321 323 324 321 312 311 307 304 301 295 296
201 196 192 198 218 251 233 211 236 225 252 267 278 286 281 292 299 308 314 319 324 327 333 339 340 334 336 341 345 329 310 311 314 320 319 315 314 313 308 301 303 302 288 273
251 204 193 246 258 258 267 262 277 249 250 264 248 264 282 283 295 305 308 314 322 325 328 334 339 337 332 335 332 311 309 318 323 321 313 305 308 313 314 303 290 272 264 262
226 184 206 253 275 307 285 254 257 267 274 291 291 276 268 275 288 296 304 306 310 318 323 329 332 326 323 327 330 328 323 322 322 315 308 311 311 305 307 302 288 279 262 256
202 188 191 229 228 217 259 270 257 252 269 262 275 303 303 280 281 294 300 298 305 313 320 325 325 322 319 322 324 325 326 321 316 315 314 311 307 300 295 299 309 306 290 293